Location: Haute-Aubrée
(44.4167°N, 6.5333°E)
Time: 07:17:11
(UTC+00:00)

Daily predictions for brighter satellites

Satellite Brightness Start Highest point End
(mag) Time Altitude Azimuth Time Altitude Azimuth Time Altitude Azimuth
BREEZE-M DEB (TANK) 3.9 19:21:55 10° W 19:24:57 38° SSW 19:32:41 10° SE
ATLAS 3B R/B 3.6 19:18:17 10° NW 19:25:44 54° WSW 19:32:42 10° SSE
Cosmos 1782 2.9 19:23:25 10° SSE 19:26:44 41° E 19:30:05 10° NNE
Cosmos 1607 4.0 19:21:47 10° SSW 19:27:56 90° SE 19:34:13 10° NE
SL-16 R/B 3.5 19:24:43 10° N 19:29:29 27° NE 19:34:12 10° ESE
ERS-1 Rocket 3.1 19:26:09 10° SSE 19:31:05 62° ENE 19:36:02 10° N
USA 305 3.6 19:27:41 10° WNW 19:31:30 39° SW 19:35:00 10° SSE
Meteor 1-27 4.2 19:26:55 10° S 19:32:29 65° E 19:38:01 10° NNE
IRAS Rocket 4.2 19:28:18 10° SSE 19:33:45 83° ENE 19:39:17 10° NNW
Resurs 01 Rocket 4.3 19:31:39 10° SW 19:34:34 17° W 19:37:30 10° NW
Okean 2 Rocket 4.3 19:33:59 10° SSW 19:38:17 46° WNW 19:42:38 10° N
MetOp-B 4.3 19:33:19 10° SSE 19:38:35 63° ENE 19:43:52 10° N
Cosmos 1459 Rocket 4.3 19:34:02 10° SSW 19:40:14 75° W 19:46:23 10° N
Cosmos 2061 Rocket 4.4 19:35:55 10° SSE 19:41:47 46° E 19:47:44 10° NNE
CZ-4B R/B 4.4 19:38:53 10° S 19:42:52 62° W 19:46:52 10° NNW
CZ-4 R/B 1.5 19:39:51 10° S 19:43:26 64° W 19:47:03 10° NNW
Cosmos 1980 Rocket 2.7 19:38:25 10° NNW 19:44:02 62° WSW 19:49:36 10° S
Cosmos 2228 3.0 19:40:26 10° S 19:44:27 57° E 19:48:29 10° NNE
USA 186 3.3 19:42:50 11° ESE 19:44:32 17° ENE 19:46:23 10° NNE
COSMOS 2406 3.6 19:39:30 10° S 19:44:53 43° ESE 19:50:17 10° NE
CSL-04 Rocket 4.4 19:41:07 10° S 19:46:28 54° W 19:51:47 10° NNW
Cosmos 2084 Rocket 3.5 19:44:25 10° NW 19:48:38 78° SW 19:52:40 11° SSE
ISS -1.6 19:46:04 10° WNW 19:48:56 26° N 19:51:49 10° NE
Cosmos 1461 3.0 19:45:28 10° S 19:48:56 39° ESE 19:52:24 10° NE
Cosmos 1455 Rocket 3.2 19:44:47 10° SSW 19:49:11 78° W 19:53:35 10° N
Cosmos 1992 Rocket 4.1 19:44:08 10° S 19:49:13 57° ESE 19:54:19 10° NNE
SL-08 R/B 3.6 19:44:43 10° NNE 19:49:23 49° E 19:53:56 10° S
Cosmos 1802 Rocket 4.1 19:43:52 10° S 19:50:03 84° W 19:56:14 10° N
Cosmos 1743 2.4 19:47:32 10° NNW 19:50:32 66° W 19:53:31 10° S
Terra 1.8 19:46:47 10° SSE 19:51:29 84° ENE 19:56:12 10° NNW
Delta 2 Rocket 4.4 19:50:22 10° SW 19:52:23 16° S 19:53:37 13° SSE
Cosmos 1892 Rocket 3.7 19:48:29 10° NNW 19:52:48 77° W 19:57:04 10° S
SKYMED 3 4.3 19:49:16 10° NNE 19:53:13 64° ESE 19:57:09 10° S
Okean O Rocket 2.1 19:52:31 12° SE 19:56:10 42° ENE 20:00:14 10° N
Cosmos 2333 Rocket 3.0 19:54:41 10° NNW 20:00:00 38° NE 20:04:29 14° ESE
NOSS 3-3 (A) 3.8 19:57:47 10° SW 20:02:52 78° NW 20:08:58 10° NE
Cosmos 1544 Rocket 4.1 19:59:08 11° SSE 20:03:01 38° E 20:07:01 10° NNE
Cosmos 1437 Rocket 3.4 20:03:18 16° SSE 20:05:30 30° E 20:08:41 10° NNE
Cosmos 2360 Rocket 3.5 20:05:03 10° N 20:09:55 28° NE 20:13:59 13° ESE
Helios 1A Rocket 3.3 20:07:35 10° N 20:10:37 47° WNW 20:13:38 10° SSW
Milstar 3 4.4 20:06:51 10° SW 20:11:12 18° S 20:15:14 12° SSE
CZ-4B R/B 3.5 20:06:09 10° S 20:11:48 73° WSW 20:17:25 10° NNW
Cosmos 2233 Rocket 4.0 20:07:26 10° S 20:13:38 87° W 20:19:49 10° N
Okean-O 2.6 20:14:53 16° SSE 20:18:17 71° ENE 20:22:39 10° N
Cosmos 909 Rocket 4.3 20:13:43 10° SW 20:20:04 75° NW 20:26:32 10° NNE
CZ-2C R/B 4.3 20:21:09 11° ENE 20:21:30 12° ENE 20:22:33 10° NE
Cosmos 2219 Rocket 3.8 20:18:03 10° N 20:22:31 23° NE 20:26:24 12° E
Cosmos 1758 Rocket 3.6 20:18:29 10° N 20:22:52 64° E 20:25:51 20° SSE
GEOS 3 Rocket 4.4 20:22:54 13° SSE 20:27:20 45° WSW 20:32:29 10° NW
ADEOS 4.2 20:25:26 10° S 20:30:30 53° W 20:35:38 10° NNW
Meteor 1-25 Rocket 4.5 20:26:48 10° N 20:32:19 53° ENE 20:35:42 23° SE
Cosmos 220 Rocket 3.8 20:31:55 14° S 20:35:20 62° ESE 20:39:24 10° NNE
NOSS 3-3 (C) 4.4 20:30:25 10° SW 20:35:32 57° NW 20:41:39 10° NNE
Cosmos 1805 3.9 20:33:07 10° NNE 20:36:00 28° ENE 20:36:34 27° E
Cosmos 2322 Rocket 2.6 20:37:11 10° NNW 20:42:42 50° ENE 20:45:49 25° ESE
Cosmos 2082 Rocket 4.0 20:39:57 10° WSW 20:45:07 34° NW 20:50:18 10° N
Cosmos 1602 Rocket 3.5 20:42:31 10° N 20:46:50 65° E 20:48:44 32° SSE
NOSS 3-4 (A) 4.0 20:43:19 10° NNW 20:50:04 67° NE 20:55:06 24° SE
NOSS 3-4 (C) 4.0 20:43:57 10° NNW 20:50:43 66° NE 20:55:45 24° SE
CZ-4B R/B 2.4 20:49:58 43° SE 20:50:55 68° ENE 20:54:21 10° N
DELTA 2 R/B (1) 3.8 20:45:52 10° W 20:51:12 49° S 20:53:40 29° SE
Cosmos 2098 Rocket 3.1 20:53:24 29° SSE 20:55:44 63° E 20:59:54 10° NNE
Cosmos 2151 3.1 20:52:59 10° NNW 20:57:04 66° W 20:59:05 28° S
Cosmos 1076 Rocket 4.4 20:55:40 10° N 20:59:29 31° ENE 21:00:20 29° E
Ariane Rocket 3.0 20:59:02 32° SSE 21:01:24 73° ENE 21:06:28 10° N
Cosmos 2278 3.8 21:04:12 10° NNW 21:09:55 76° WSW 21:12:37 32° SSE
SPOT 3 Rocket 3.7 21:09:25 29° S 21:12:02 71° WSW 21:17:10 10° NNW
Cosmos 1763 Rocket 3.6 21:10:53 34° SSE 21:13:00 58° ESE 21:18:11 10° NNE
USA 186 3.7 21:12:57 16° WSW 21:13:45 17° W 21:15:42 10° NW
SL-16 R/B 2.6 21:08:22 10° NNW 21:13:53 55° WSW 21:16:43 28° S
Meteor 1-5 Rocket 4.2 21:09:04 10° N 21:14:53 84° E 21:17:38 34° SSE
USA 290 2.1 21:18:07 76° W 21:18:12 77° WNW 21:21:20 10° NNE
Cosmos 1606 Rocket 3.4 21:17:14 43° S 21:18:36 84° E 21:22:56 10° N
Cosmos 1464 Rocket 3.9 21:18:41 25° S 21:22:27 88° W 21:28:41 10° N
Helios 1B rocket 4.2 21:24:22 16° ENE 21:24:22 16° ENE 21:26:29 10° NNE
Cosmos 990 Rocket 4.2 21:19:24 10° NNW 21:24:31 57° ENE 21:26:04 40° ESE
CZ-4B R/B 3.6 21:23:15 36° S 21:25:05 64° WSW 21:29:54 10° NNW
Okean 1 2.8 21:25:54 81° SSE 21:26:04 87° E 21:29:40 10° N
Cosmos 1726 Rocket 3.2 21:25:49 63° SSE 21:26:19 72° E 21:30:21 10° NNE
ISS -1.7 21:23:34 10° NW 21:26:26 25° N 21:28:15 16° NE
BREEZE-M DEB (TANK) 3.4 21:26:05 10° WNW 21:28:08 23° N 21:28:12 23° N
Okean O Rocket 3.8 21:29:45 11° SW 21:32:32 19° W 21:35:35 10° NW
GRACE-FO 1 4.4 21:34:59 83° NW 21:34:59 83° NW 21:38:24 10° N
GRACE-FO 2 4.4 21:35:27 82° NW 21:35:27 82° NW 21:38:51 10° N
Cosmos 1536 3.8 21:34:02 10° NNE 21:36:59 30° ENE 21:36:59 30° ENE
Cosmos-2242 3.1 21:37:47 51° E 21:37:47 51° E 21:41:40 10° NNE
Cosmos 1428 Rocket 4.4 21:33:15 10° N 21:39:29 82° W 21:42:00 38° S
Cosmos 1777 Rocket 4.4 21:36:41 10° NNW 21:41:47 56° WSW 21:43:21 40° SSW
Cosmos 1092 Rocket 4.1 21:37:20 10° N 21:43:27 60° E 21:45:20 42° SE
Cosmos 2333 Rocket 3.3 21:39:06 10° NW 21:44:14 35° WSW 21:46:30 26° SSW
Cosmos 2297 Rocket 4.1 21:46:14 15° E 21:46:14 15° E 21:48:23 10° ENE
Cosmos 1833 4.3 21:44:13 23° SSW 21:47:50 76° WNW 21:53:29 10° NNE
Okean 1-7 Rocket 4.4 21:44:53 10° NNW 21:49:09 45° W 21:50:19 37° SW
Cosmos 1503 Rocket 4.2 21:46:47 10° NNW 21:51:53 59° WSW 21:53:04 47° SSW
CZ-2C R/B 4.1 21:52:44 23° WNW 21:52:44 23° WNW 21:54:24 10° NW
Cosmos 2360 Rocket 2.7 21:48:40 10° NW 21:54:09 51° WSW 21:55:44 39° SSW
Cosmos 1766 3.9 21:54:30 10° N 21:56:45 41° N 21:56:45 41° N
Cosmos 2322 4.4 21:53:10 10° NNW 21:58:36 43° ENE 22:00:18 34° E
Cosmos 2034 Rocket 4.2 21:58:36 32° SSW 22:01:40 69° W 22:08:00 10° N
Cosmos 2221 3.9 22:03:18 26° ENE 22:03:18 26° ENE 22:06:01 10° NNE
Cosmos 372 Rocket 4.2 21:59:37 10° NNW 22:04:40 56° ENE 22:05:24 51° E
Cosmos 1271 Rocket 4.2 22:06:21 24° NE 22:06:21 24° NE 22:08:01 10° NNE
Cosmos 2219 Rocket 2.3 22:01:19 10° NNW 22:06:56 65° WSW 22:08:05 52° SSW
Cosmos 1354 Rocket 4.1 22:01:45 10° NNW 22:06:56 65° WSW 22:07:46 55° SSW
Cosmos 540 Rocket 4.1 22:07:45 27° SW 22:10:18 51° WNW 22:15:20 10° NNE
Cosmos 2279 Rocket 4.0 22:16:40 53° SE 22:17:55 65° E 22:24:07 10° NNE
Helios 1A 3.1 22:14:30 10° N 22:18:07 66° NW 22:18:07 66° NW
Cosmos 1953 Rocket 4.2 22:15:52 10° NNW 22:19:58 43° W 22:20:10 42° W
RESURS DK-1 3.1 22:17:15 10° NNW 22:20:45 45° NE 22:20:45 45° NE
Aureole 1 Rocket 4.0 22:16:49 10° NNW 22:22:51 79° WSW 22:24:34 53° S
Cosmos 1634 Rocket 3.9 22:22:34 50° SSW 22:24:18 80° W 22:30:32 10° N
Cosmos 2322 Rocket 3.6 22:21:47 10° NW 22:26:23 26° WSW 22:27:37 24° WSW
Cosmos 1937 Rocket 3.9 22:24:33 10° NNW 22:29:33 50° ENE 22:30:08 47° E
Cosmos 2058 Rocket 3.7 22:30:59 47° W 22:31:15 47° WNW 22:35:27 10° N
Cosmos 468 Rocket 4.4 22:30:14 44° WSW 22:31:41 60° WNW 22:36:53 10° NNE
Geosat 4.4 22:29:08 10° NNE 22:34:03 58° WNW 22:35:38 40° WSW
CZ-2C R/B 3.8 22:30:13 10° NNE 22:34:15 64° ENE 22:34:15 64° ENE
GP-B 4.4 22:32:57 10° NNE 22:36:11 28° ENE 22:36:11 28° ENE
BREEZE-M DEB 4.4 22:32:15 10° W 22:36:59 88° N 22:50:52 10° E
Lacrosse 4 Rocket 3.7 22:42:43 14° ENE 22:42:43 14° ENE 22:43:36 10° ENE
CZ-2C R/B 4.2 22:39:09 21° E 22:40:34 24° ENE 22:44:39 10° N
Meteor 2-9 Rocket 4.0 22:35:27 10° N 22:40:53 78° E 22:41:24 71° SE
Cosmos 44 3.6 22:35:47 10° NW 22:41:01 58° WSW 22:41:01 58° WSW
Cosmos 2237 Rocket 3.2 22:40:11 10° NNW 22:45:30 39° NE 22:47:08 32° E
USA 234 3.3 22:43:03 10° ENE 22:49:25 52° SE 22:49:36 52° SE
Cosmos 2266 Rocket 4.1 22:43:29 10° N 22:49:28 60° E 22:50:26 53° ESE
Cosmos 1980 4.4 22:44:23 10° NNW 22:49:48 45° ENE 22:51:12 38° E
Cosmos 1470 4.3 22:47:32 10° NNW 22:49:19 29° NNW 22:49:19 29° NNW
ARIANE 5 R/B 2.7 22:52:41 74° N 22:52:41 74° N 22:56:46 10° NNW
ALOS 2 2.8 22:54:46 67° NNE 22:54:46 67° NNE 22:58:44 10° N
Cosmos 2227 Rocket 3.7 22:55:50 23° E 22:55:50 23° E 22:59:37 10° NE
Helios 1B rocket 3.9 22:58:18 26° NW 22:58:18 26° NW 23:00:16 10° NNW
COSMOS 2428 2.5 22:53:30 10° NNW 22:59:12 76° WSW 22:59:34 73° SSW
Meteor 2-4 Rocket 4.4 23:00:13 37° E 23:00:16 37° E 23:05:18 10° NNE
Cosmos 2263 Rocket 4.1 23:03:56 17° E 23:03:56 17° E 23:06:50 10° ENE
ISS -1.2 23:00:16 10° WNW 23:01:11 17° NW 23:01:11 17° NW
Cosmos 1898 Rocket 3.6 22:59:32 10° NNW 23:04:33 60° W 23:04:33 60° W
CZ-2C R/B 3.5 23:03:28 10° NNE 23:09:08 53° E 23:09:26 53° ESE
Meteor 1-11 Rocket 3.5 23:04:07 10° N 23:09:47 88° E 23:10:10 78° SSE
Meteor 1-10 Rocket 4.2 23:11:29 69° SSW 23:12:14 83° W 23:18:13 10° N
Cosmos 1238 Rocket 4.0 23:14:04 37° NE 23:14:04 37° NE 23:17:10 10° NNE
PSLV R/B 3.9 23:13:29 10° N 23:17:16 65° NNW 23:17:16 65° NNW
Cosmos 1655 Rocket 4.3 23:16:51 10° N 23:22:59 55° ENE 23:24:15 47° ESE
Meteor 1-27 Rocket 3.6 23:25:50 75° SSE 23:26:20 85° E 23:32:06 10° NNE
Alouette 2 Rocket 4.3 23:24:33 10° N 23:28:18 50° ENE 23:28:18 50° ENE
Cosmos 841 Rocket 4.4 23:27:23 35° W 23:28:31 40° WNW 23:33:27 10° N
Cosmos 2297 Rocket 2.1 23:27:59 72° WSW 23:28:32 80° WNW 23:34:12 10° NNE
NOSS 0 Rocket 4.0 23:24:24 10° NNW 23:30:28 60° WSW 23:30:48 59° SW
Meteor 2-10 Rocket 4.3 23:25:51 10° N 23:31:13 46° ENE 23:32:12 42° ESE
Cosmos 2221 4.2 23:39:35 24° WNW 23:39:35 24° WNW 23:42:52 10° NNW
Cosmos 158 Rocket 4.0 23:39:40 70° ESE 23:39:40 70° ESE 23:44:55 10° NNE
MetOp-A 3.9 23:42:38 70° WNW 23:42:38 70° WNW 23:47:00 10° NNW
ACS3 Solar Sail 2.5 23:39:45 10° NNE 23:45:17 37° E 23:46:10 35° ESE
Landsat 5 4.3 23:45:29 10° NNE 23:48:28 43° NE 23:48:28 43° NE
